Year,Month,Day,Hour,Minute,Value (Times are PST for temperature in C)
2016,04,20,00,00,13.80
2016,04,20,00,01,13.80
2016,04,20,00,02,13.80
2016,04,20,00,03,13.80
2016,04,20,00,04,13.80
2016,04,20,00,05,13.80
2016,04,20,00,06,13.80
2016,04,20,00,07,13.80
2016,04,20,00,08,13.80
2016,04,20,00,09,13.80
2016,04,20,00,10,13.90
2016,04,20,00,11,13.90
2016,04,20,00,12,13.90
2016,04,20,00,13,13.90
2016,04,20,00,14,13.90
2016,04,20,00,15,13.90
2016,04,20,00,16,13.90
2016,04,20,00,17,13.90
2016,04,20,00,18,13.90
2016,04,20,00,19,13.90
2016,04,20,00,20,13.90
2016,04,20,00,21,13.90
2016,04,20,00,22,13.90
2016,04,20,00,23,13.90
2016,04,20,00,24,13.90
2016,04,20,00,25,13.90
2016,04,20,00,26,13.90
2016,04,20,00,27,13.80
2016,04,20,00,28,13.80
2016,04,20,00,29,13.80
2016,04,20,00,30,13.80
2016,04,20,00,31,13.80
2016,04,20,00,32,13.80
2016,04,20,00,33,13.80
2016,04,20,00,34,13.80
2016,04,20,00,35,13.80
2016,04,20,00,36,13.80
2016,04,20,00,37,13.80
2016,04,20,00,38,13.80
2016,04,20,00,39,13.80
2016,04,20,00,40,13.70
2016,04,20,00,41,13.70
2016,04,20,00,42,13.70
2016,04,20,00,43,13.70
2016,04,20,00,44,13.70
2016,04,20,00,45,13.70
2016,04,20,00,46,13.70
2016,04,20,00,47,13.70
2016,04,20,00,48,13.70
2016,04,20,00,49,13.70
2016,04,20,00,50,13.70
2016,04,20,00,51,13.70
2016,04,20,00,52,13.70
2016,04,20,00,53,13.70
2016,04,20,00,54,13.70
2016,04,20,00,55,13.70
2016,04,20,00,56,13.70
2016,04,20,00,57,13.70
2016,04,20,00,58,13.70
2016,04,20,00,59,13.70
2016,04,20,01,00,13.70
2016,04,20,01,01,13.70
2016,04,20,01,02,13.70
2016,04,20,01,03,13.70
2016,04,20,01,04,13.80
2016,04,20,01,05,13.80
2016,04,20,01,06,13.80
2016,04,20,01,07,13.80
2016,04,20,01,08,13.80
2016,04,20,01,09,13.80
2016,04,20,01,10,13.80
2016,04,20,01,11,13.80
2016,04,20,01,12,13.80
2016,04,20,01,13,13.80
2016,04,20,01,14,13.80
2016,04,20,01,15,13.80
2016,04,20,01,16,13.80
2016,04,20,01,17,13.80
2016,04,20,01,18,13.80
2016,04,20,01,19,13.80
2016,04,20,01,20,13.80
2016,04,20,01,21,13.80
2016,04,20,01,22,13.80
2016,04,20,01,23,13.80
2016,04,20,01,24,13.80
2016,04,20,01,25,13.80
2016,04,20,01,26,13.80
2016,04,20,01,27,13.80
2016,04,20,01,28,13.80
2016,04,20,01,29,13.80
2016,04,20,01,30,13.80
2016,04,20,01,31,13.80
2016,04,20,01,32,13.80
2016,04,20,01,33,13.80
2016,04,20,01,34,13.70
2016,04,20,01,35,13.70
2016,04,20,01,36,13.70
2016,04,20,01,37,13.70
2016,04,20,01,38,13.70
2016,04,20,01,39,13.70
2016,04,20,01,40,13.70
2016,04,20,01,41,13.70
2016,04,20,01,42,13.70
2016,04,20,01,43,13.60
2016,04,20,01,44,13.60
2016,04,20,01,45,13.60
2016,04,20,01,46,13.60
2016,04,20,01,47,13.60
2016,04,20,01,48,13.60
2016,04,20,01,49,13.60
2016,04,20,01,50,13.60
2016,04,20,01,51,13.60
2016,04,20,01,52,13.60
2016,04,20,01,53,13.60
2016,04,20,01,54,13.60
2016,04,20,01,55,13.60
2016,04,20,01,56,13.50
2016,04,20,01,57,13.50
2016,04,20,01,58,13.50
2016,04,20,01,59,13.50
2016,04,20,02,00,13.50
2016,04,20,02,01,13.50
2016,04,20,02,02,13.50
2016,04,20,02,03,13.40
2016,04,20,02,04,13.40
2016,04,20,02,05,13.40
2016,04,20,02,06,13.40
2016,04,20,02,07,13.40
2016,04,20,02,08,13.40
2016,04,20,02,09,13.40
2016,04,20,02,10,13.40
2016,04,20,02,11,13.40
2016,04,20,02,12,13.30
2016,04,20,02,13,13.30
2016,04,20,02,14,13.30
2016,04,20,02,15,13.30
2016,04,20,02,16,13.30
2016,04,20,02,17,13.30
2016,04,20,02,18,13.30
2016,04,20,02,19,13.30
2016,04,20,02,20,13.30
2016,04,20,02,21,13.30
2016,04,20,02,22,13.30
2016,04,20,02,23,13.20
2016,04,20,02,24,13.20
2016,04,20,02,25,13.20
2016,04,20,02,26,13.20
2016,04,20,02,27,13.20
2016,04,20,02,28,13.20
2016,04,20,02,29,13.20
2016,04,20,02,30,13.20
2016,04,20,02,31,13.20
2016,04,20,02,32,13.20
2016,04,20,02,33,13.20
2016,04,20,02,34,13.20
2016,04,20,02,35,13.10
2016,04,20,02,36,13.10
2016,04,20,02,37,13.10
2016,04,20,02,38,13.10
2016,04,20,02,39,13.10
2016,04,20,02,40,13.10
2016,04,20,02,41,13.10
2016,04,20,02,42,13.10
2016,04,20,02,43,13.10
2016,04,20,02,44,13.10
2016,04,20,02,45,13.10
2016,04,20,02,46,13.00
2016,04,20,02,47,13.00
2016,04,20,02,48,13.00
2016,04,20,02,49,13.00
2016,04,20,02,50,13.00
2016,04,20,02,51,13.00
2016,04,20,02,52,13.00
2016,04,20,02,53,13.00
2016,04,20,02,54,12.90
2016,04,20,02,55,12.90
2016,04,20,02,56,12.90
2016,04,20,02,57,12.90
2016,04,20,02,58,12.90
2016,04,20,02,59,12.90
2016,04,20,03,00,12.90
2016,04,20,03,01,12.90
2016,04,20,03,02,12.90
2016,04,20,03,03,12.90
2016,04,20,03,04,12.90
2016,04,20,03,05,12.80
2016,04,20,03,06,12.80
2016,04,20,03,07,12.80
2016,04,20,03,08,12.80
2016,04,20,03,09,12.80
2016,04,20,03,10,12.80
2016,04,20,03,11,12.80
2016,04,20,03,12,12.80
2016,04,20,03,13,12.80
2016,04,20,03,14,12.80
2016,04,20,03,15,12.80
2016,04,20,03,16,12.80
2016,04,20,03,17,12.80
2016,04,20,03,18,12.80
2016,04,20,03,19,12.80
2016,04,20,03,20,12.80
2016,04,20,03,21,12.80
2016,04,20,03,22,12.80
2016,04,20,03,23,12.80
2016,04,20,03,24,12.80
2016,04,20,03,25,12.80
2016,04,20,03,26,12.80
2016,04,20,03,27,12.80
2016,04,20,03,28,12.80
2016,04,20,03,29,12.80
2016,04,20,03,30,12.80
2016,04,20,03,31,12.80
2016,04,20,03,32,12.80
2016,04,20,03,33,12.80
2016,04,20,03,34,12.80
2016,04,20,03,35,12.80
2016,04,20,03,36,12.80
2016,04,20,03,37,12.80
2016,04,20,03,38,12.80
2016,04,20,03,39,12.80
2016,04,20,03,40,12.80
2016,04,20,03,41,12.80
2016,04,20,03,42,12.80
2016,04,20,03,43,12.80
2016,04,20,03,44,12.80
2016,04,20,03,45,12.80
2016,04,20,03,46,12.80
2016,04,20,03,47,12.80
2016,04,20,03,48,12.80
2016,04,20,03,49,12.80
2016,04,20,03,50,12.80
2016,04,20,03,51,12.80
2016,04,20,03,52,12.80
2016,04,20,03,53,12.80
2016,04,20,03,54,12.80
2016,04,20,03,55,12.80
2016,04,20,03,56,12.80
2016,04,20,03,57,12.80
2016,04,20,03,58,12.80
2016,04,20,03,59,12.80
2016,04,20,04,00,12.80
2016,04,20,04,01,12.80
2016,04,20,04,02,12.80
2016,04,20,04,03,12.80
2016,04,20,04,04,12.80
2016,04,20,04,05,12.80
2016,04,20,04,06,12.80
2016,04,20,04,07,12.80
2016,04,20,04,08,12.80
2016,04,20,04,09,12.80
2016,04,20,04,10,12.80
2016,04,20,04,11,12.80
2016,04,20,04,12,12.80
2016,04,20,04,13,12.80
2016,04,20,04,14,12.80
2016,04,20,04,15,12.80
2016,04,20,04,16,12.80
2016,04,20,04,17,12.80
2016,04,20,04,18,12.80
2016,04,20,04,19,12.80
2016,04,20,04,20,12.80
2016,04,20,04,21,12.80
2016,04,20,04,22,12.80
2016,04,20,04,23,12.80
2016,04,20,04,24,12.80
2016,04,20,04,25,12.80
2016,04,20,04,26,12.80
2016,04,20,04,27,12.70
2016,04,20,04,28,12.70
2016,04,20,04,29,12.70
2016,04,20,04,30,12.70
2016,04,20,04,31,12.70
2016,04,20,04,32,12.70
2016,04,20,04,33,12.70
2016,04,20,04,34,12.70
2016,04,20,04,35,12.70
2016,04,20,04,36,12.70
2016,04,20,04,37,12.70
2016,04,20,04,38,12.60
2016,04,20,04,39,12.60
2016,04,20,04,40,12.60
2016,04,20,04,41,12.60
2016,04,20,04,42,12.60
2016,04,20,04,43,12.60
2016,04,20,04,44,12.60
2016,04,20,04,45,12.50
2016,04,20,04,46,12.50
2016,04,20,04,47,12.50
2016,04,20,04,48,12.50
2016,04,20,04,49,12.40
2016,04,20,04,50,12.40
2016,04,20,04,51,12.40
2016,04,20,04,52,12.40
2016,04,20,04,53,12.40
2016,04,20,04,54,12.40
2016,04,20,04,55,12.40
2016,04,20,04,56,12.40
2016,04,20,04,57,12.40
2016,04,20,04,58,12.40
2016,04,20,04,59,12.30
2016,04,20,05,00,12.30
2016,04,20,05,01,12.30
2016,04,20,05,02,12.30
2016,04,20,05,03,12.30
2016,04,20,05,04,12.30
2016,04,20,05,05,12.30
2016,04,20,05,06,12.30
2016,04,20,05,07,12.30
2016,04,20,05,08,12.30
2016,04,20,05,09,12.30
2016,04,20,05,10,12.30
2016,04,20,05,11,12.30
2016,04,20,05,12,12.30
2016,04,20,05,13,12.20
2016,04,20,05,14,12.20
2016,04,20,05,15,12.20
2016,04,20,05,16,12.20
2016,04,20,05,17,12.20
2016,04,20,05,18,12.20
2016,04,20,05,19,12.20
2016,04,20,05,20,12.20
2016,04,20,05,21,12.10
2016,04,20,05,22,12.10
2016,04,20,05,23,12.10
2016,04,20,05,24,12.10
2016,04,20,05,25,12.10
2016,04,20,05,26,12.10
2016,04,20,05,27,12.10
2016,04,20,05,28,12.10
2016,04,20,05,29,12.10
2016,04,20,05,30,12.10
2016,04,20,05,31,12.10
2016,04,20,05,32,12.10
2016,04,20,05,33,12.10
2016,04,20,05,34,12.10
2016,04,20,05,35,12.10
2016,04,20,05,36,12.10
2016,04,20,05,37,12.10
2016,04,20,05,38,12.20
2016,04,20,05,39,12.20
2016,04,20,05,40,12.20
2016,04,20,05,41,12.20
2016,04,20,05,42,12.20
2016,04,20,05,43,12.20
2016,04,20,05,44,12.30
2016,04,20,05,45,12.30
2016,04,20,05,46,12.30
2016,04,20,05,47,12.30
2016,04,20,05,48,12.30
2016,04,20,05,49,12.30
2016,04,20,05,50,12.30
2016,04,20,05,51,12.40
2016,04,20,05,52,12.40
2016,04,20,05,53,12.40
2016,04,20,05,54,12.40
2016,04,20,05,55,12.40
2016,04,20,05,56,12.40
2016,04,20,05,57,12.40
2016,04,20,05,58,12.50
2016,04,20,05,59,12.50
2016,04,20,06,00,12.50
2016,04,20,06,01,12.50
2016,04,20,06,02,12.50
2016,04,20,06,03,12.50
2016,04,20,06,04,12.50
2016,04,20,06,05,12.50
2016,04,20,06,06,12.50
2016,04,20,06,07,12.50
2016,04,20,06,08,12.50
2016,04,20,06,09,12.50
2016,04,20,06,10,12.50
2016,04,20,06,11,12.40
2016,04,20,06,12,12.40
2016,04,20,06,13,12.40
2016,04,20,06,14,12.40
2016,04,20,06,15,12.40
2016,04,20,06,16,12.40
2016,04,20,06,17,12.40
2016,04,20,06,18,12.40
2016,04,20,06,19,12.40
2016,04,20,06,20,12.40
2016,04,20,06,21,12.40
2016,04,20,06,22,12.40
2016,04,20,06,23,12.40
2016,04,20,06,24,12.40
2016,04,20,06,25,12.40
2016,04,20,06,26,12.40
2016,04,20,06,27,12.40
2016,04,20,06,28,12.40
2016,04,20,06,29,12.40
2016,04,20,06,30,12.40
2016,04,20,06,31,12.30
2016,04,20,06,32,12.40
2016,04,20,06,33,12.30
2016,04,20,06,34,12.30
2016,04,20,06,35,12.30
2016,04,20,06,36,12.30
2016,04,20,06,37,12.30
2016,04,20,06,38,12.30
2016,04,20,06,39,12.30
2016,04,20,06,40,12.30
2016,04,20,06,41,12.30
2016,04,20,06,42,12.30
2016,04,20,06,43,12.30
2016,04,20,06,44,12.30
2016,04,20,06,45,12.20
2016,04,20,06,46,12.20
2016,04,20,06,47,12.20
2016,04,20,06,48,12.20
2016,04,20,06,49,12.20
2016,04,20,06,50,12.20
2016,04,20,06,51,12.10
2016,04,20,06,52,12.10
2016,04,20,06,53,12.10
2016,04,20,06,54,12.10
2016,04,20,06,55,12.10
2016,04,20,06,56,12.10
2016,04,20,06,57,12.10
2016,04,20,06,58,12.10
2016,04,20,06,59,12.10
2016,04,20,07,00,12.10
2016,04,20,07,01,12.10
2016,04,20,07,02,12.00
2016,04,20,07,03,12.00
2016,04,20,07,04,12.00
2016,04,20,07,05,12.00
2016,04,20,07,06,12.00
2016,04,20,07,07,12.00
2016,04,20,07,08,12.00
2016,04,20,07,09,12.00
2016,04,20,07,10,12.00
2016,04,20,07,11,12.00
2016,04,20,07,12,12.00
2016,04,20,07,13,12.00
2016,04,20,07,14,12.00
2016,04,20,07,15,12.00
2016,04,20,07,16,12.00
2016,04,20,07,17,12.10
2016,04,20,07,18,12.10
2016,04,20,07,19,12.10
2016,04,20,07,20,12.10
2016,04,20,07,21,12.10
2016,04,20,07,22,12.10
2016,04,20,07,23,12.10
2016,04,20,07,24,12.20
2016,04,20,07,25,12.20
2016,04,20,07,26,12.20
2016,04,20,07,27,12.20
2016,04,20,07,28,12.20
2016,04,20,07,29,12.30
2016,04,20,07,30,12.30
2016,04,20,07,31,12.30
2016,04,20,07,32,12.30
2016,04,20,07,33,12.30
2016,04,20,07,34,12.40
2016,04,20,07,35,12.40
2016,04,20,07,36,12.40
2016,04,20,07,37,12.50
2016,04,20,07,38,12.50
2016,04,20,07,39,12.50
2016,04,20,07,40,12.60
2016,04,20,07,41,12.60
2016,04,20,07,42,12.60
2016,04,20,07,43,12.70
2016,04,20,07,44,12.70
2016,04,20,07,45,12.70
2016,04,20,07,46,12.70
2016,04,20,07,47,12.70
2016,04,20,07,48,12.80
2016,04,20,07,49,12.80
2016,04,20,07,50,12.80
2016,04,20,07,51,12.90
2016,04,20,07,52,12.90
2016,04,20,07,53,12.90
2016,04,20,07,54,13.00
2016,04,20,07,55,13.00
2016,04,20,07,56,13.10
2016,04,20,07,57,13.10
2016,04,20,07,58,13.20
2016,04,20,07,59,13.20
2016,04,20,08,00,13.20
2016,04,20,08,01,13.30
2016,04,20,08,02,13.30
2016,04,20,08,03,13.30
2016,04,20,08,04,13.40
2016,04,20,08,05,13.40
2016,04,20,08,06,13.50
2016,04,20,08,07,13.50
2016,04,20,08,08,13.60
2016,04,20,08,09,13.60
2016,04,20,08,10,13.70
2016,04,20,08,11,13.70
2016,04,20,08,12,13.70
2016,04,20,08,13,13.80
2016,04,20,08,14,13.80
2016,04,20,08,15,13.90
2016,04,20,08,16,13.90
2016,04,20,08,17,14.00
2016,04,20,08,18,14.00
2016,04,20,08,19,14.10
2016,04,20,08,20,14.10
2016,04,20,08,21,14.20
2016,04,20,08,22,14.20
2016,04,20,08,23,14.30
2016,04,20,08,24,14.30
2016,04,20,08,25,14.40
2016,04,20,08,26,14.50
2016,04,20,08,27,14.60
2016,04,20,08,28,14.60
2016,04,20,08,29,14.70
2016,04,20,08,30,14.80
2016,04,20,08,31,14.80
2016,04,20,08,32,14.90
2016,04,20,08,33,15.00
2016,04,20,08,34,15.00
2016,04,20,08,35,15.10
2016,04,20,08,36,15.20
2016,04,20,08,37,15.20
2016,04,20,08,38,15.30
2016,04,20,08,39,15.30
2016,04,20,08,40,15.40
2016,04,20,08,41,15.40
2016,04,20,08,42,15.50
2016,04,20,08,43,15.60
2016,04,20,08,44,15.60
2016,04,20,08,45,15.70
2016,04,20,08,46,15.70
2016,04,20,08,47,15.80
2016,04,20,08,48,15.90
2016,04,20,08,49,15.90
2016,04,20,08,50,16.00
2016,04,20,08,51,16.00
2016,04,20,08,52,16.10
2016,04,20,08,53,16.10
2016,04,20,08,54,16.20
2016,04,20,08,55,16.30
2016,04,20,08,56,16.30
2016,04,20,08,57,16.40
2016,04,20,08,58,16.40
2016,04,20,08,59,16.50
2016,04,20,09,00,16.60
2016,04,20,09,01,16.60
2016,04,20,09,02,16.70
2016,04,20,09,03,16.70
2016,04,20,09,04,16.80
2016,04,20,09,05,16.90
2016,04,20,09,06,16.90
2016,04,20,09,07,17.00
2016,04,20,09,08,17.00
2016,04,20,09,09,17.10
2016,04,20,09,10,17.10
2016,04,20,09,11,17.20
2016,04,20,09,12,17.20
2016,04,20,09,13,17.30
2016,04,20,09,14,17.30
2016,04,20,09,15,17.40
2016,04,20,09,16,17.50
2016,04,20,09,17,17.60
2016,04,20,09,18,17.60
2016,04,20,09,19,17.70
2016,04,20,09,20,17.80
2016,04,20,09,21,17.80
2016,04,20,09,22,17.90
2016,04,20,09,23,17.90
2016,04,20,09,24,18.00
2016,04,20,09,25,18.00
2016,04,20,09,26,18.10
2016,04,20,09,27,18.20
2016,04,20,09,28,18.20
2016,04,20,09,29,18.30
2016,04,20,09,30,18.30
2016,04,20,09,31,18.30
2016,04,20,09,32,18.40
2016,04,20,09,33,18.40
2016,04,20,09,34,18.40
2016,04,20,09,35,18.50
2016,04,20,09,36,18.50
2016,04,20,09,37,18.60
2016,04,20,09,38,18.60
2016,04,20,09,39,18.60
2016,04,20,09,40,18.60
2016,04,20,09,41,18.70
2016,04,20,09,42,18.70
2016,04,20,09,43,18.70
2016,04,20,09,44,18.80
2016,04,20,09,45,18.80
2016,04,20,09,46,18.90
2016,04,20,09,47,18.90
2016,04,20,09,48,18.90
2016,04,20,09,49,19.00
2016,04,20,09,50,19.00
2016,04,20,09,51,19.10
2016,04,20,09,52,19.20
2016,04,20,09,53,19.20
2016,04,20,09,54,19.30
2016,04,20,09,55,19.30
2016,04,20,09,56,19.40
2016,04,20,09,57,19.50
2016,04,20,09,58,19.60
2016,04,20,09,59,19.60
2016,04,20,10,00,19.70
2016,04,20,10,01,19.70
2016,04,20,10,02,19.70
2016,04,20,10,03,19.70
2016,04,20,10,04,19.70
2016,04,20,10,05,19.80
2016,04,20,10,06,19.80
2016,04,20,10,07,19.80
2016,04,20,10,08,19.90
2016,04,20,10,09,19.90
2016,04,20,10,10,19.90
2016,04,20,10,11,19.90
2016,04,20,10,12,20.00
2016,04,20,10,13,20.10
2016,04,20,10,14,20.20
2016,04,20,10,15,20.20
2016,04,20,10,16,20.20
2016,04,20,10,17,20.20
2016,04,20,10,18,20.20
2016,04,20,10,19,20.20
2016,04,20,10,20,20.20
2016,04,20,10,21,20.30
2016,04,20,10,22,20.30
2016,04,20,10,23,20.30
2016,04,20,10,24,20.30
2016,04,20,10,25,20.40
2016,04,20,10,26,20.40
2016,04,20,10,27,20.40
2016,04,20,10,28,20.40
2016,04,20,10,29,20.50
2016,04,20,10,30,20.60
2016,04,20,10,31,20.70
2016,04,20,10,32,20.80
2016,04,20,10,33,20.80
2016,04,20,10,34,20.90
2016,04,20,10,35,21.00
2016,04,20,10,36,20.90
2016,04,20,10,37,20.90
2016,04,20,10,38,20.80
2016,04,20,10,39,20.70
2016,04,20,10,40,20.70
2016,04,20,10,41,20.70
2016,04,20,10,42,20.70
2016,04,20,10,43,20.70
2016,04,20,10,44,20.70
2016,04,20,10,45,20.60
2016,04,20,10,46,20.60
2016,04,20,10,47,20.60
2016,04,20,10,48,20.60
2016,04,20,10,49,20.60
2016,04,20,10,50,20.60
2016,04,20,10,51,20.50
2016,04,20,10,52,20.40
2016,04,20,10,53,20.30
2016,04,20,10,54,20.30
2016,04,20,10,55,20.40
2016,04,20,10,56,20.50
2016,04,20,10,57,20.60
2016,04,20,10,58,20.70
2016,04,20,10,59,20.80
2016,04,20,11,00,20.80
2016,04,20,11,01,20.90
2016,04,20,11,02,20.90
2016,04,20,11,03,21.00
2016,04,20,11,04,21.20
2016,04,20,11,05,21.30
2016,04,20,11,06,21.40
2016,04,20,11,07,21.50
2016,04,20,11,08,21.50
2016,04,20,11,09,21.50
2016,04,20,11,10,21.50
2016,04,20,11,11,21.60
2016,04,20,11,12,21.70
2016,04,20,11,13,21.80
2016,04,20,11,14,21.90
2016,04,20,11,15,22.00
2016,04,20,11,16,22.10
2016,04,20,11,17,22.10
2016,04,20,11,18,22.10
2016,04,20,11,19,22.10
2016,04,20,11,20,22.20
2016,04,20,11,21,22.20
2016,04,20,11,22,22.30
2016,04,20,11,23,22.40
2016,04,20,11,24,22.50
2016,04,20,11,25,22.50
2016,04,20,11,26,22.50
2016,04,20,11,27,22.60
2016,04,20,11,28,22.60
2016,04,20,11,29,22.80
2016,04,20,11,30,23.00
2016,04,20,11,31,23.10
2016,04,20,11,32,23.20
2016,04,20,11,33,23.20
2016,04,20,11,34,23.20
2016,04,20,11,35,23.20
2016,04,20,11,36,23.20
2016,04,20,11,37,23.20
2016,04,20,11,38,23.20
2016,04,20,11,39,23.10
2016,04,20,11,40,23.00
2016,04,20,11,41,23.00
2016,04,20,11,42,23.00
2016,04,20,11,43,23.10
2016,04,20,11,44,23.20
2016,04,20,11,45,23.20
2016,04,20,11,46,23.20
2016,04,20,11,47,23.10
2016,04,20,11,48,23.10
2016,04,20,11,49,23.20
2016,04,20,11,50,23.40
2016,04,20,11,51,23.50
2016,04,20,11,52,23.60
2016,04,20,11,53,23.60
2016,04,20,11,54,23.60
2016,04,20,11,55,23.70
2016,04,20,11,56,23.80
2016,04,20,11,57,23.90
2016,04,20,11,58,23.90
2016,04,20,11,59,23.90
2016,04,20,12,00,23.90
2016,04,20,12,01,23.90
2016,04,20,12,02,23.80
2016,04,20,12,03,23.70
2016,04,20,12,04,23.70
2016,04,20,12,05,23.70
2016,04,20,12,06,23.60
2016,04,20,12,07,23.50
2016,04,20,12,08,23.60
2016,04,20,12,09,23.70
2016,04,20,12,10,23.60
2016,04,20,12,11,23.60
2016,04,20,12,12,23.50
2016,04,20,12,13,23.50
2016,04,20,12,14,23.50
2016,04,20,12,15,23.50
2016,04,20,12,16,23.50
2016,04,20,12,17,23.40
2016,04,20,12,18,23.40
2016,04,20,12,19,23.50
2016,04,20,12,20,23.60
2016,04,20,12,21,23.80
2016,04,20,12,22,23.90
2016,04,20,12,23,24.00
2016,04,20,12,24,24.00
2016,04,20,12,25,24.10
2016,04,20,12,26,24.10
2016,04,20,12,27,24.10
2016,04,20,12,28,24.10
2016,04,20,12,29,24.20
2016,04,20,12,30,24.20
2016,04,20,12,31,24.10
2016,04,20,12,32,24.10
2016,04,20,12,33,24.10
2016,04,20,12,34,24.10
2016,04,20,12,35,24.10
2016,04,20,12,36,24.10
2016,04,20,12,37,24.10
2016,04,20,12,38,24.20
2016,04,20,12,39,24.20
2016,04,20,12,40,24.20
2016,04,20,12,41,24.30
2016,04,20,12,42,24.40
2016,04,20,12,43,24.50
2016,04,20,12,44,24.60
2016,04,20,12,45,24.60
2016,04,20,12,46,24.60
2016,04,20,12,47,24.70
2016,04,20,12,48,24.70
2016,04,20,12,49,24.60
2016,04,20,12,50,24.60
2016,04,20,12,51,24.60
2016,04,20,12,52,24.70
2016,04,20,12,53,24.70
2016,04,20,12,54,24.80
2016,04,20,12,55,24.90
2016,04,20,12,56,25.00
2016,04,20,12,57,25.10
2016,04,20,12,58,25.20
2016,04,20,12,59,25.20
2016,04,20,13,00,25.20
2016,04,20,13,01,25.10
2016,04,20,13,02,25.00
2016,04,20,13,03,25.00
2016,04,20,13,04,24.90
2016,04,20,13,05,24.90
2016,04,20,13,06,24.90
2016,04,20,13,07,24.80
2016,04,20,13,08,24.70
2016,04,20,13,09,24.40
2016,04,20,13,10,24.20
2016,04,20,13,11,24.00
2016,04,20,13,12,23.90
2016,04,20,13,13,23.80
2016,04,20,13,14,23.70
2016,04,20,13,15,23.60
2016,04,20,13,16,23.60
2016,04,20,13,17,23.60
2016,04,20,13,18,23.60
2016,04,20,13,19,23.70
2016,04,20,13,20,23.70
2016,04,20,13,21,23.80
2016,04,20,13,22,23.90
2016,04,20,13,23,23.90
2016,04,20,13,24,23.90
2016,04,20,13,25,24.00
2016,04,20,13,26,24.10
2016,04,20,13,27,24.10
2016,04,20,13,28,24.10
2016,04,20,13,29,24.00
2016,04,20,13,30,23.90
2016,04,20,13,31,23.80
2016,04,20,13,32,23.80
2016,04,20,13,33,23.80
2016,04,20,13,34,23.80
2016,04,20,13,35,23.80
2016,04,20,13,36,23.80
2016,04,20,13,37,23.70
2016,04,20,13,38,23.70
2016,04,20,13,39,23.70
2016,04,20,13,40,23.70
2016,04,20,13,41,23.70
2016,04,20,13,42,23.60
2016,04,20,13,43,23.60
2016,04,20,13,44,23.50
2016,04,20,13,45,23.50
2016,04,20,13,46,23.40
2016,04,20,13,47,23.40
2016,04,20,13,48,23.30
2016,04,20,13,49,23.20
2016,04,20,13,50,23.20
2016,04,20,13,51,23.30
2016,04,20,13,52,23.30
2016,04,20,13,53,23.30
2016,04,20,13,54,23.40
2016,04,20,13,55,23.50
2016,04,20,13,56,23.50
2016,04,20,13,57,23.60
2016,04,20,13,58,23.70
2016,04,20,13,59,23.80
2016,04,20,14,00,24.00
2016,04,20,14,01,24.20
2016,04,20,14,02,24.40
2016,04,20,14,03,24.60
2016,04,20,14,04,24.80
2016,04,20,14,05,25.20
2016,04,20,14,06,25.50
2016,04,20,14,07,25.70
2016,04,20,14,08,25.90
2016,04,20,14,09,26.10
2016,04,20,14,10,26.30
2016,04,20,14,11,26.60
2016,04,20,14,12,26.70
2016,04,20,14,13,26.50
2016,04,20,14,14,26.40
2016,04,20,14,15,26.20
2016,04,20,14,16,26.00
2016,04,20,14,17,25.80
2016,04,20,14,18,25.60
2016,04,20,14,19,25.50
2016,04,20,14,20,25.30
2016,04,20,14,21,25.20
2016,04,20,14,22,25.20
2016,04,20,14,23,25.10
2016,04,20,14,24,25.00
2016,04,20,14,25,25.00
2016,04,20,14,26,25.10
2016,04,20,14,27,25.10
2016,04,20,14,28,25.10
2016,04,20,14,29,25.10
2016,04,20,14,30,25.10
2016,04,20,14,31,25.10
2016,04,20,14,32,25.00
2016,04,20,14,33,25.00
2016,04,20,14,34,24.90
2016,04,20,14,35,24.90
2016,04,20,14,36,24.90
2016,04,20,14,37,24.90
2016,04,20,14,38,24.90
2016,04,20,14,39,24.90
2016,04,20,14,40,24.90
2016,04,20,14,41,24.80
2016,04,20,14,42,24.70
2016,04,20,14,43,24.60
2016,04,20,14,44,24.60
2016,04,20,14,45,24.50
2016,04,20,14,46,24.40
2016,04,20,14,47,24.30
2016,04,20,14,48,24.20
2016,04,20,14,49,24.10
2016,04,20,14,50,24.10
2016,04,20,14,51,24.00
2016,04,20,14,52,23.90
2016,04,20,14,53,23.90
2016,04,20,14,54,24.00
2016,04,20,14,55,24.20
2016,04,20,14,56,24.20
2016,04,20,14,57,24.30
2016,04,20,14,58,24.30
2016,04,20,14,59,24.40
2016,04,20,15,00,24.70
2016,04,20,15,01,25.00
2016,04,20,15,02,25.40
2016,04,20,15,03,25.70
2016,04,20,15,04,25.90
2016,04,20,15,05,26.00
2016,04,20,15,06,26.10
2016,04,20,15,07,26.20
2016,04,20,15,08,26.20
2016,04,20,15,09,26.20
2016,04,20,15,10,26.20
2016,04,20,15,11,26.10
2016,04,20,15,12,26.00
2016,04,20,15,13,25.90
2016,04,20,15,14,25.90
2016,04,20,15,15,25.90
2016,04,20,15,16,25.80
2016,04,20,15,17,25.80
2016,04,20,15,18,25.80
2016,04,20,15,19,25.80
2016,04,20,15,20,25.80
2016,04,20,15,21,25.80
2016,04,20,15,22,25.90
2016,04,20,15,23,25.80
2016,04,20,15,24,25.80
2016,04,20,15,25,25.80
2016,04,20,15,26,25.80
2016,04,20,15,27,25.80
2016,04,20,15,28,25.70
2016,04,20,15,29,25.80
2016,04,20,15,30,25.80
2016,04,20,15,31,26.00
2016,04,20,15,32,26.20
2016,04,20,15,33,26.30
2016,04,20,15,34,26.40
2016,04,20,15,35,26.50
2016,04,20,15,36,26.50
2016,04,20,15,37,26.60
2016,04,20,15,38,26.80
2016,04,20,15,39,26.80
2016,04,20,15,40,26.80
2016,04,20,15,41,26.80
2016,04,20,15,42,26.80
2016,04,20,15,43,26.80
2016,04,20,15,44,26.80
2016,04,20,15,45,26.80
2016,04,20,15,46,26.70
2016,04,20,15,47,26.60
2016,04,20,15,48,26.50
2016,04,20,15,49,26.60
2016,04,20,15,50,26.60
2016,04,20,15,51,26.60
2016,04,20,15,52,26.70
2016,04,20,15,53,26.90
2016,04,20,15,54,27.00
2016,04,20,15,55,27.10
2016,04,20,15,56,27.10
2016,04,20,15,57,27.10
2016,04,20,15,58,27.20
2016,04,20,15,59,27.20
2016,04,20,16,00,27.20
2016,04,20,16,01,27.30
2016,04,20,16,02,27.30
2016,04,20,16,03,27.40
2016,04,20,16,04,27.30
2016,04,20,16,05,27.20
2016,04,20,16,06,27.20
2016,04,20,16,07,27.20
2016,04,20,16,08,27.30
2016,04,20,16,09,27.30
2016,04,20,16,10,27.20
2016,04,20,16,11,27.30
2016,04,20,16,12,27.30
2016,04,20,16,13,27.40
2016,04,20,16,14,27.50
2016,04,20,16,15,27.60
2016,04,20,16,16,27.60
2016,04,20,16,17,27.70
2016,04,20,16,18,27.70
2016,04,20,16,19,27.70
2016,04,20,16,20,27.70
2016,04,20,16,21,27.70
2016,04,20,16,22,27.70
2016,04,20,16,23,27.70
2016,04,20,16,24,27.70
2016,04,20,16,25,27.60
2016,04,20,16,26,27.50
2016,04,20,16,27,27.40
2016,04,20,16,28,27.30
2016,04,20,16,29,27.30
2016,04,20,16,30,27.30
2016,04,20,16,31,27.40
2016,04,20,16,32,27.40
2016,04,20,16,33,27.40
2016,04,20,16,34,27.40
2016,04,20,16,35,27.30
2016,04,20,16,36,27.30
2016,04,20,16,37,27.30
2016,04,20,16,38,27.30
2016,04,20,16,39,27.40
2016,04,20,16,40,27.50
2016,04,20,16,41,27.60
2016,04,20,16,42,27.60
2016,04,20,16,43,27.60
2016,04,20,16,44,27.60
2016,04,20,16,45,27.50
2016,04,20,16,46,27.60
2016,04,20,16,47,27.60
2016,04,20,16,48,27.70
2016,04,20,16,49,27.60
2016,04,20,16,50,27.60
2016,04,20,16,51,27.60
2016,04,20,16,52,27.60
2016,04,20,16,53,27.60
2016,04,20,16,54,27.70
2016,04,20,16,55,27.70
2016,04,20,16,56,27.70
2016,04,20,16,57,27.60
2016,04,20,16,58,27.60
2016,04,20,16,59,27.50
2016,04,20,17,00,27.50
2016,04,20,17,01,27.50
2016,04,20,17,02,27.40
2016,04,20,17,03,27.50
2016,04,20,17,04,27.40
2016,04,20,17,05,27.40
2016,04,20,17,06,27.40
2016,04,20,17,07,27.30
2016,04,20,17,08,27.30
2016,04,20,17,09,27.20
2016,04,20,17,10,27.30
2016,04,20,17,11,27.30
2016,04,20,17,12,27.30
2016,04,20,17,13,27.40
2016,04,20,17,14,27.40
2016,04,20,17,15,27.40
2016,04,20,17,16,27.50
2016,04,20,17,17,27.50
2016,04,20,17,18,27.60
2016,04,20,17,19,27.60